Weather History for Mineola, TX

Change the Weather History Date:

Sunday, January 27, 2013

  Actual Average (KTYR) Record (KTYR)
Temperature  
Mean Temperature 60 °F 47 °F  
Max Temperature 75 °F 57 °F 81 °F (1975)
Min Temperature 46 °F 37 °F 11 °F (1897)
Degree Days  
Heating Degree Days 4 18  
Month to date heating degree days 509  
Since 1 July heating degree days 1410  
Cooling Degree Days 0 0  
Month to date cooling degree days 0  
Year to date cooling degree days 0  
Growing Degree Days 10 (Base 50)    
Moisture  
Dew Point 57 °F    
Average Humidity 87    
Maximum Humidity 100    
Minimum Humidity 57    
Precipitation  
Precipitation 0.00 in 0.11 in 2.03 in (1992)
Month to date precipitation 2.67  
Year to date precipitation 2.67  
Snow  
Snow 0.00 in - - ()
Month to date snowfall  
Since 1 July snowfall  
Snow Depth -    
Sea Level Pressure  
Sea Level Pressure 30.07 in    
Wind  
Wind Speed 5 mph (SSE)    
Max Wind Speed 15 mph    
Max Gust Speed 21 mph    
Visibility 6 miles    
Events Fog    
T = Trace of Precipitation, MM = Missing Value Source: NWS Daily Summary

Daily Weather History Graph

Daily Weather History Graph

Search for Another Location

Airport:

Trip Planner

Search our weather history database for the weather conditions in past years. The results will help you decide how hot, cold, wet, or windy it might be!

Date:

Astronomy

Jan. 27, 2013 Rise Set
Actual Time 7:19 AM CST 5:50 PM CST
Civil Twilight 6:53 AM CST 6:16 PM CST
Nautical Twilight 6:23 AM CST 6:46 PM CST
Astronomical Twilight 5:54 AM CST 7:15 PM CST
Moon 6:39 PM CST (1/27) 7:17 AM CST (1/27)
Length of Visible Light 11h 22m
Length of Day
10h 30m
Full, 100% of the Moon is Illuminated
Jan 27
Full
Feb 3
Last Quarter
Feb 10
New
Feb 17
First Quarter
Feb 25
Full

Hourly Weather History & Observations

Time (CST) Temp. Windchill Dew Point Humidity Pressure Visibility Wind Dir Wind Speed Gust Speed Precip Events Conditions
12:15 AM 46.4 °F 44.3 °F 46.4 °F 100% 30.14 in 0.2 mi ESE 4.6 mph - N/A Fog Fog
12:35 AM 46.4 °F 45.2 °F 46.4 °F 100% 30.14 in 0.2 mi ESE 3.5 mph - N/A Fog Fog
12:55 AM 48.2 °F - 48.2 °F 100% 30.14 in 0.2 mi ESE 5.8 mph - N/A Fog Fog
1:15 AM 48.2 °F - 48.2 °F 100% 30.14 in 0.2 mi ESE 4.6 mph - N/A Fog Fog
1:35 AM 48.2 °F - 48.2 °F 100% 30.14 in 0.2 mi Calm Calm - N/A Fog Fog
1:55 AM 48.2 °F - 48.2 °F 100% 30.15 in 0.2 mi SE 3.5 mph - N/A Fog Fog
2:15 AM 48.2 °F - 48.2 °F 100% 30.15 in 0.2 mi Calm Calm - N/A Fog Fog
2:35 AM 48.2 °F - 48.2 °F 100% 30.13 in 0.2 mi Calm Calm - N/A Fog Fog
2:55 AM 48.2 °F - 48.2 °F 100% 30.14 in 0.2 mi Calm Calm - N/A Fog Fog
3:15 AM 48.2 °F - 48.2 °F 100% 30.13 in 0.2 mi Calm Calm - N/A Fog Fog
3:35 AM 50.0 °F - 50.0 °F 100% 30.13 in 0.2 mi ESE 3.5 mph - N/A Fog Fog
3:55 AM 50.0 °F - 50.0 °F 100% 30.12 in 0.2 mi Calm Calm - N/A Fog Fog
4:15 AM 50.0 °F - 50.0 °F 100% 30.12 in 0.2 mi ESE 3.5 mph - N/A Fog Fog
4:35 AM 51.8 °F - 51.8 °F 100% 30.11 in 0.2 mi ESE 3.5 mph - N/A Fog Fog
4:55 AM 51.8 °F - 51.8 °F 100% 30.11 in 0.2 mi Calm Calm - N/A Fog Fog
5:15 AM 51.8 °F - 51.8 °F 100% 30.12 in 0.2 mi Calm Calm - N/A Fog Fog
5:35 AM 51.8 °F - 51.8 °F 100% 30.11 in 0.2 mi ESE 3.5 mph - N/A Fog Fog
5:55 AM 51.8 °F - 51.8 °F 100% 30.12 in 0.2 mi Calm Calm - N/A Fog Fog
6:15 AM 51.8 °F - 51.8 °F 100% 30.12 in 0.2 mi Calm Calm - N/A Fog Fog
6:35 AM 51.8 °F - 51.8 °F 100% 30.13 in 0.2 mi ESE 3.5 mph - N/A Fog Fog
6:55 AM 51.8 °F - 51.8 °F 100% 30.13 in 0.2 mi ESE 3.5 mph - N/A Fog Fog
7:15 AM 51.8 °F - 51.8 °F 100% 30.14 in 0.2 mi ESE 3.5 mph - N/A Fog Fog
7:35 AM 51.8 °F - 51.8 °F 100% 30.14 in 0.2 mi Calm Calm - N/A Fog Fog
7:55 AM 51.8 °F - 51.8 °F 100% 30.14 in 0.2 mi SE 3.5 mph - N/A Fog Fog
8:15 AM 53.6 °F - 53.6 °F 100% 30.14 in 0.2 mi ESE 3.5 mph - N/A Fog Fog
8:35 AM 53.6 °F - 53.6 °F 100% 30.14 in 0.2 mi SE 4.6 mph - N/A Fog Fog
8:55 AM 53.6 °F - 53.6 °F 100% 30.14 in 0.2 mi ESE 3.5 mph - N/A Fog Fog
9:15 AM 55.4 °F - 55.4 °F 100% 30.13 in 0.5 mi SE 6.9 mph - N/A Fog Fog
9:35 AM 55.4 °F - 55.4 °F 100% 30.14 in 1.8 mi SE 6.9 mph - N/A   Mist
9:55 AM 57.2 °F - 57.2 °F 100% 30.14 in 3.0 mi SSE 6.9 mph - N/A   Mist
10:15 AM 59.0 °F - 59.0 °F 100% 30.14 in 5.0 mi South 6.9 mph - N/A   Mist
10:35 AM 59.0 °F - 59.0 °F 100% 30.14 in 6.0 mi SSE 4.6 mph - N/A   Mist
10:55 AM 60.8 °F - 60.8 °F 100% 30.14 in 7.0 mi SSE 6.9 mph - N/A   Unknown
11:15 AM 62.6 °F - 62.6 °F 100% 30.13 in 9.0 mi SSE 8.1 mph - N/A   Unknown
11:35 AM 64.4 °F - 64.4 °F 100% 30.12 in 9.0 mi South 8.1 mph - N/A   Unknown
11:55 AM 66.2 °F - 62.6 °F 88% 30.11 in 10.0 mi South 9.2 mph - N/A   Unknown
12:15 PM 68.0 °F - 62.6 °F 83% 30.09 in 10.0 mi South 10.4 mph - N/A   Unknown
12:35 PM 69.8 °F - 60.8 °F 73% 30.07 in 10.0 mi South 10.4 mph 20.7 mph N/A   Unknown
12:55 PM 69.8 °F - 62.6 °F 78% 30.05 in 10.0 mi SSE 12.7 mph 17.3 mph N/A   Unknown
1:15 PM 71.6 °F - 62.6 °F 73% 30.04 in 10.0 mi South 12.7 mph 18.4 mph N/A   Unknown
1:35 PM 69.8 °F - 62.6 °F 78% 30.04 in 10.0 mi South 9.2 mph - N/A   Unknown
1:55 PM 71.6 °F - 62.6 °F 73% 30.03 in 10.0 mi South 5.8 mph - N/A   Unknown
2:15 PM 71.6 °F - 62.6 °F 73% 30.02 in 10.0 mi South 8.1 mph - N/A   Unknown
2:35 PM 73.4 °F - 62.6 °F 69% 30.01 in 10.0 mi South 9.2 mph 17.3 mph N/A   Unknown
2:55 PM 73.4 °F - 60.8 °F 65% 30.00 in 10.0 mi South 15.0 mph 19.6 mph N/A   Unknown
3:15 PM 75.2 °F - 59.0 °F 57% 29.99 in 10.0 mi South 10.4 mph 19.6 mph N/A   Unknown
3:35 PM 75.2 °F - 60.8 °F 61% 29.99 in 10.0 mi South 8.1 mph 16.1 mph N/A   Unknown
3:55 PM 73.4 °F - 60.8 °F 65% 29.99 in 10.0 mi South 12.7 mph 18.4 mph N/A   Unknown
4:15 PM 73.4 °F - 60.8 °F 65% 29.99 in 10.0 mi SSE 6.9 mph 17.3 mph N/A   Unknown
4:35 PM 75.2 °F - 60.8 °F 61% 29.99 in 10.0 mi SSE 9.2 mph 16.1 mph N/A   Unknown
4:55 PM 73.4 °F - 60.8 °F 65% 29.99 in 10.0 mi SSE 9.2 mph - N/A   Unknown
5:15 PM 73.4 °F - 60.8 °F 65% 29.99 in 10.0 mi SSE 9.2 mph - N/A   Unknown
5:35 PM 73.4 °F - 60.8 °F 65% 29.99 in 10.0 mi SSE 6.9 mph - N/A   Unknown
5:55 PM 71.6 °F - 60.8 °F 69% 29.99 in 10.0 mi SSE 4.6 mph - N/A   Unknown
6:15 PM 71.6 °F - 60.8 °F 69% 29.99 in 10.0 mi SSE 6.9 mph - N/A   Unknown
6:35 PM 71.6 °F - 60.8 °F 69% 30.00 in 10.0 mi SSE 3.5 mph - N/A   Unknown
6:55 PM 69.8 °F - 60.8 °F 73% 30.00 in 10.0 mi SSE 6.9 mph - N/A   Unknown
7:15 PM 69.8 °F - 62.6 °F 78% 30.00 in 10.0 mi SSE 8.1 mph - N/A   Unknown
7:35 PM 69.8 °F - 62.6 °F 78% 30.01 in 10.0 mi SSE 6.9 mph - N/A   Unknown
7:55 PM 69.8 °F - 62.6 °F 78% 30.01 in 10.0 mi SSE 6.9 mph - N/A   Unknown
8:15 PM 69.8 °F - 62.6 °F 78% 30.01 in 10.0 mi SSE 5.8 mph - N/A   Unknown
8:35 PM 69.8 °F - 62.6 °F 78% 30.01 in 10.0 mi SSE 9.2 mph - N/A   Unknown
8:55 PM 69.8 °F - 62.6 °F 78% 30.00 in 10.0 mi SSE 10.4 mph 16.1 mph N/A   Unknown
9:15 PM 69.8 °F - 64.4 °F 83% 30.00 in 10.0 mi SSE 10.4 mph 19.6 mph N/A   Unknown
9:35 PM 69.8 °F - 64.4 °F 83% 30.01 in 10.0 mi South 8.1 mph - N/A   Unknown
9:55 PM 69.8 °F - 64.4 °F 83% 30.01 in 10.0 mi South 10.4 mph 16.1 mph N/A   Unknown
10:15 PM 69.8 °F - 64.4 °F 83% 30.01 in 10.0 mi South 10.4 mph - N/A   Unknown
10:35 PM 69.8 °F - 64.4 °F 83% 30.02 in 10.0 mi South 11.5 mph 17.3 mph N/A   Unknown
10:55 PM 69.8 °F - 64.4 °F 83% 30.02 in 10.0 mi South 10.4 mph 16.1 mph N/A   Unknown
11:15 PM 69.8 °F - 64.4 °F 83% 30.03 in 10.0 mi South 9.2 mph - N/A   Unknown
11:35 PM 69.8 °F - 64.4 °F 83% 30.03 in 10.0 mi South 8.1 mph 20.7 mph N/A   Unknown